Regional Weather Roundup
Issued by NWS Jackson, KY

Home | Current Version | Previous Version | Graphics & Text | Print | Product List | Glossary On
Versions: 1 2 3 4 5 6 7 8 9 10 11 12 13 14 15 16 17 18 19 20 21 22 23 24 25 26 27 28 29 30 31 32 33 34 35 36 37 38 39 40 41 42 43 44 45 46 47 48 49 50
000
ASUS43 KJKL 011719
RWRJKL

EAST KENTUCKY HOURLY WEATHER ROUNDUP
NATIONAL WEATHER SERVICE JACKSON KY
1200 PM EST SUN FEB 01 2015

NOTE: "FAIR" INDICATES FEW OR NO CLOUDS BELOW 12,000 FEET WITH
NO SIGNIFICANT WEATHER AND/OR OBSTRUCTIONS TO VISIBILITY.

* THESE REPORTS ARE NOT UNDER NWS QUALITY CONTROL AND MAY NOT
  REPORT WEATHER SUCH AS PRECIPITATION AND FOG.

KYZ079-080-083-085-087-088-110-112-115-119-120-011800
...EASTERN KENTUCKY...

CITY           SKY/WX    TMP DP  RH WIND       PRES   REMARKS
JACKSON        CLOUDY    46  18  32 CALM      29.99F
LONDON         CLOUDY    49  17  28 S13       29.99F
SOMERSET*      DRIZZLE   46  28  49 S14G23    29.98F
MONTICELLO*    CLOUDY    49  34  56 S18G26    29.98F HAZE
MIDDLESBORO*   CLOUDY    44  18  34 S10       30.06F
HARLAN APT*    CLOUDY    46  10  23 SE8       30.03F
HAZARD APT*    CLOUDY    48  18  29 S3        29.99
BLACK MTN*       N/A     39  12  33 S9          N/A  WCI  33
PIKEVILLE APT* PTSUNNY   45  19  36 S3        29.99F
BIG SANDY*     CLOUDY    46  19  34 SE6       30.00F
MOREHEAD APT*  LGT RAIN  45  21  39 S13G25    29.98F
ASHLAND*       CLOUDY    43  21  42 SE8       29.96F
$$

KYZ035-036-041-042-044-050-067-078-099-011800
...CENTRAL KENTUCKY...

CITY           SKY/WX    TMP DP  RH WIND       PRES   REMARKS
MT STERLING*   LGT RAIN  41  30  65 SW10      29.96F
FLEMING/MASON* RAIN      42  23  47 S16G23    29.95F
DANVILLE*      CLOUDY    43  32  65 S7        29.94F
RICHMOND*      CLOUDY    45  27  49 S9        29.94F
LEXINGTON      LGT RAIN  44  36  73 S12G22    29.91F
FRANKFORT      LGT RAIN  43  37  79 S14G23    29.87F
$$

KYZ091>093-OHZ055-061-077-WVZ005-015-034-035-042-011800
...SOUTHERN OHIO/WEST VIRGINIA...

CITY           SKY/WX    TMP DP  RH WIND       PRES   REMARKS
COVINGTON      LGT RAIN  43  26  51 S15       29.87F
COLUMBUS       CLOUDY    34  31  88 E10       29.94F WCI  26
DAYTON         CLOUDY    37  32  82 SE16      29.87F WCI  28
WILMINGTON     CLOUDY    38  24  57 SE12G21   29.90F WCI  30
HUNTINGTON     CLOUDY    42  18  37 SE7       29.99F
CHARLESTON     CLOUDY    40  21  46 CALM      30.02F
PINEVILLE*     PTSUNNY   47  24  41 MISG      30.07F
BECKLEY        CLOUDY    41  11  29 SE8       30.03F
BLUEFIELD      PTSUNNY   44  10  25 E9        30.04F
$$

VAZ002-007-008-TNZ017-027-036-066-071-011800
...SOUTHWEST VIRGINIA/EAST TENNESSEE...

CITY           SKY/WX    TMP DP  RH WIND       PRES   REMARKS
WISE*          CLOUDY    46  12  25 S10G17    30.02F
JONESVILLE*    CLOUDY    45  19  36 CALM      30.08F
ABINGDON*      CLOUDY    48  19  31 CALM      30.06F
BRISTOL        CLOUDY    46  19  34 CALM      30.06F
KNOXVILLE      CLOUDY    44  25  47 S3        30.08F
OAK RIDGE      CLOUDY    45  23  42 CALM      30.08F
CROSSVILLE     CLOUDY    45  31  58 S12G23    30.01F
NASHVILLE      CLOUDY    46  43  87 S16       29.87F
$$

...KEY TO REMARKS...
VSB - VISIBILITY IN MILES
WCI - WIND CHILL INDEX
HX  - HEAT INDEX

$$


USA.gov is the U.S. government's official web portal to all federal, state and local government web resources and services.